Location: Akdamlar
(36.8729°N, 30.5187°E)
Time: 19:18:38
(UTC+00:00)

CZ-2C R/B - Pass Details

Date: 18 September 2020
Orbit: 785 x 870 km, 98.2° (Epoch: 26 October)

Event Time Altitude Azimuth Distance (km) Brightness Sun altitude
Rises 17:37:58 0° 12° (NNE) 3,419 5.9 -20.0°
Reaches altitude 10° 17:40:19 10° 13° (NNE) 2,490 5.2 -20.4°
Maximum altitude 17:45:53 87° 103° (ESE) 869 2.6 -21.5°
Drops below altitude 10° 17:51:29 10° 193° (SSW) 2,505 5.1 -22.5°
Sets 17:53:52 0° 194° (SSW) 3,440 5.8 -23.0°
